TimeEDT,TemperatureF,Dew PointF,Humidity,Sea Level PressureIn,VisibilityMPH,Wind Direction,Wind SpeedMPH,Gust SpeedMPH,PrecipitationIn,Events,Conditions,WindDirDegrees,DateUTC
12:15 AM,42.8,37.4,81,29.68,10.0,NNW,4.6,-,N/A,,Overcast,340,2012-03-26 04:15:00
12:53 AM,42.1,37.9,85,29.68,10.0,North,4.6,-,N/A,,Overcast,350,2012-03-26 04:53:00
1:53 AM,42.1,39.0,89,29.68,10.0,Calm,Calm,-,N/A,,Overcast,0,2012-03-26 05:53:00
2:53 AM,42.1,39.0,89,29.66,10.0,NW,3.5,-,N/A,,Overcast,310,2012-03-26 06:53:00
3:21 AM,42.8,39.2,87,29.65,8.0,Calm,Calm,-,N/A,,Mostly Cloudy,0,2012-03-26 07:21:00
3:53 AM,41.0,37.9,89,29.65,6.0,SW,4.6,-,N/A,,Mostly Cloudy,220,2012-03-26 07:53:00
4:53 AM,39.0,37.0,93,29.64,5.0,Calm,Calm,-,N/A,,Clear,0,2012-03-26 08:53:00
5:32 AM,35.6,35.6,100,29.63,1.2,Calm,Calm,-,N/A,,Clear,0,2012-03-26 09:32:00
5:34 AM,35.6,35.6,100,29.63,0.5,Calm,Calm,-,N/A,Fog,Fog,0,2012-03-26 09:34:00
5:42 AM,35.6,33.8,93,29.63,0.2,Calm,Calm,-,N/A,Fog,Fog,0,2012-03-26 09:42:00
5:47 AM,35.6,33.8,93,29.63,1.2,Calm,Calm,-,N/A,,Partly Cloudy,0,2012-03-26 09:47:00
5:53 AM,36.0,34.0,93,29.63,2.0,Calm,Calm,-,N/A,,Partly Cloudy,0,2012-03-26 09:53:00
6:04 AM,35.6,33.8,93,29.63,1.8,Calm,Calm,-,N/A,,Clear,0,2012-03-26 10:04:00
6:22 AM,37.4,35.6,93,29.63,2.5,SW,4.6,-,N/A,,Scattered Clouds,220,2012-03-26 10:22:00
6:30 AM,37.4,35.6,93,29.62,3.0,Calm,Calm,-,N/A,,Mostly Cloudy,0,2012-03-26 10:30:00
6:38 AM,37.4,35.6,93,29.63,3.0,SSW,3.5,-,N/A,,Scattered Clouds,200,2012-03-26 10:38:00
6:45 AM,37.4,35.6,93,29.63,2.5,SSW,3.5,-,N/A,,Mostly Cloudy,200,2012-03-26 10:45:00
6:53 AM,37.0,36.0,96,29.63,6.0,Calm,Calm,-,N/A,,Scattered Clouds,0,2012-03-26 10:53:00
7:53 AM,42.1,39.9,92,29.64,8.0,Calm,Calm,-,N/A,,Clear,0,2012-03-26 11:53:00
8:53 AM,51.1,43.0,74,29.63,10.0,West,8.1,-,N/A,,Clear,280,2012-03-26 12:53:00
9:53 AM,53.1,42.1,66,29.65,10.0,North,17.3,29.9,N/A,,Mostly Cloudy,360,2012-03-26 13:53:00
10:45 AM,48.2,35.6,62,29.68,10.0,NNW,9.2,17.3,0.00,Rain,Light Rain,330,2012-03-26 14:45:00
10:53 AM,46.9,35.1,63,29.68,10.0,NNW,8.1,19.6,0.00,Rain,Light Rain,330,2012-03-26 14:53:00
11:53 AM,50.0,28.9,44,29.68,10.0,NNW,15.0,31.1,0.00,,Mostly Cloudy,340,2012-03-26 15:53:00
12:53 PM,51.1,25.0,36,29.68,10.0,NNW,12.7,24.2,N/A,,Clear,330,2012-03-26 16:53:00
1:53 PM,48.9,14.0,25,29.68,10.0,North,12.7,33.4,N/A,,Clear,350,2012-03-26 17:53:00
2:53 PM,50.0,17.1,27,29.69,10.0,NW,8.1,24.2,N/A,,Clear,320,2012-03-26 18:53:00
3:53 PM,46.9,12.9,25,29.71,10.0,NW,10.4,31.1,N/A,,Clear,320,2012-03-26 19:53:00
4:53 PM,46.0,12.0,25,29.74,10.0,North,19.6,34.5,N/A,,Clear,350,2012-03-26 20:53:00
5:53 PM,42.1,10.0,27,29.78,10.0,NNW,13.8,21.9,N/A,,Clear,340,2012-03-26 21:53:00
6:53 PM,37.9,9.0,30,29.83,10.0,NNW,10.4,23.0,N/A,,Clear,340,2012-03-26 22:53:00
7:53 PM,35.1,9.0,34,29.88,10.0,NNW,12.7,19.6,N/A,,Clear,340,2012-03-26 23:53:00
8:53 PM,33.1,9.0,37,29.94,10.0,NNW,8.1,21.9,N/A,,Clear,330,2012-03-27 00:53:00
9:53 PM,32.0,7.0,35,29.96,10.0,NNW,8.1,23.0,N/A,,Clear,330,2012-03-27 01:53:00
10:53 PM,32.0,6.1,34,29.96,10.0,NNW,11.5,26.5,N/A,,Clear,330,2012-03-27 02:53:00
11:53 PM,30.9,5.0,33,29.97,10.0,NW,9.2,21.9,N/A,,Clear,320,2012-03-27 03:53:00